Weather History for Palma de Mallorca, Spain

Change the Weather History Date:

Wednesday, February 27, 2013

  Actual Average Record
Temperature  
Mean Temperature 40 °F -  
Max Temperature 55 °F 62 °F 68 °F (2002)
Min Temperature 26 °F 41 °F 26 °F (2013)
Degree Days  
Heating Degree Days 24    
Moisture  
Dew Point 33 °F    
Average Humidity 73    
Maximum Humidity 93    
Minimum Humidity 33    
Precipitation  
Precipitation 0.00 in 0.05 in - ()
Sea Level Pressure  
Sea Level Pressure 30.14 in    
Wind  
Wind Speed 4 mph ()    
Max Wind Speed 14 mph    
Max Gust Speed 24 mph    
Visibility 6.9 miles    
Events      
Averages and records for this station are not official NWS values.
T = Trace of Precipitation, MM = Missing Value Source: Averaged Metar Reports

Daily Weather History Graph

Daily Weather History Graph

Search for Another Location

Airport:

Trip Planner

Search our weather history database for the weather conditions in past years. The results will help you decide how hot, cold, wet, or windy it might be!

Date:

Astronomy

Feb. 27, 2013 Rise Set
Actual Time 7:24 AM CET 6:39 PM CET
Civil Twilight 6:57 AM CET 7:06 PM CET
Nautical Twilight 6:26 AM CET 7:37 PM CET
Astronomical Twilight 5:55 AM CET 8:08 PM CET
Moon 8:43 PM CET 7:52 AM CET
Length of Visible Light 12h 08m
Length of Day
11h 14m
Full, 97% of the Moon is Illuminated
Feb 27
Full
Mar 4
Last Quarter
Mar 11
New
Mar 19
First Quarter
Mar 27
Full

Hourly Weather History & Observations

Time (CET) Temp. Windchill Dew Point Humidity Pressure Visibility Wind Dir Wind Speed Gust Speed Precip Events Conditions
12:00 AM 33.8 °F - 32.0 °F 93% 30.18 in - NE 1.2 mph - N/A   Clear
12:30 AM 32.0 °F - 28.4 °F 87% 30.18 in - Calm Calm - N/A   Clear
1:00 AM 30 °F - 27 °F 84% 30.21 in 9 mi Calm Calm - -  
1:00 AM 32.0 °F - 30.2 °F 93% 30.18 in - ENE 2.3 mph - N/A   Clear
1:30 AM 32.0 °F - 30.2 °F 93% 30.18 in - Calm Calm - N/A   Clear
2:00 AM 30.2 °F - 28.4 °F 93% 30.18 in - NNE 1.2 mph - N/A   Clear
2:30 AM 32.0 °F - 28.4 °F 87% 30.18 in - ENE 1.2 mph - N/A   Clear
3:00 AM 30.2 °F - 28.4 °F 93% 30.18 in - NNE 2.3 mph - N/A   Clear
3:30 AM 30.2 °F - 28.4 °F 93% 30.18 in - Calm Calm - N/A   Clear
4:00 AM 30.2 °F - 28.4 °F 93% 30.18 in - NE 1.2 mph - N/A   Clear
4:30 AM 32.0 °F - 30.2 °F 93% 30.18 in - Calm Calm - N/A   Clear
5:00 AM 30.2 °F 26.7 °F 28.4 °F 93% 30.18 in - NNE 3.5 mph - N/A   Clear
5:30 AM 28.4 °F 24.6 °F 26.6 °F 93% 30.18 in - North 3.5 mph - N/A   Clear
6:00 AM 30.2 °F - 28.4 °F 93% 30.18 in - NNE 2.3 mph - N/A   Clear
6:30 AM 28.4 °F - 26.6 °F 93% 30.18 in - Calm Calm - N/A   Clear
7:00 AM 27 °F - 25 °F 88% 30.20 in 12 mi Calm Calm - -   Scattered Clouds
7:00 AM 30.2 °F - 28.4 °F 93% 30.18 in - Calm Calm - N/A   Clear
7:30 AM 28.4 °F - 26.6 °F 93% 30.18 in 6.2 mi Variable 1.2 mph - N/A   Partly Cloudy
8:00 AM 28.4 °F 23.3 °F 26.6 °F 93% 30.18 in 6.2 mi East 4.6 mph - N/A   Partly Cloudy
8:30 AM 32.0 °F - 30.2 °F 93% 30.18 in 6.2 mi North 1.2 mph - N/A   Partly Cloudy
9:30 AM 41.0 °F - 35.6 °F 81% 30.18 in 6.2 mi Variable 1.2 mph - N/A   Partly Cloudy
10:30 AM 50.0 °F - 35.6 °F 58% 30.18 in 6.2 mi NNE 3.5 mph - N/A   Partly Cloudy
11:00 AM 51.8 °F - 35.6 °F 54% 30.18 in 6.2 mi ENE 6.9 mph - N/A   Partly Cloudy
11:30 AM 51.8 °F - 33.8 °F 50% 30.15 in 6.2 mi ENE 6.9 mph - N/A   Partly Cloudy
12:00 PM 53.6 °F - 35.6 °F 51% 30.15 in 6.2 mi East 9.2 mph - N/A   Partly Cloudy
12:30 PM 53.6 °F - 35.6 °F 51% 30.15 in 6.2 mi ENE 9.2 mph - N/A   Partly Cloudy
1:00 PM 53 °F - 32 °F 33% 30.16 in 16 mi ENE 9.2 mph - -   Partly Cloudy
1:00 PM 53.6 °F - 35.6 °F 51% 30.15 in 6.2 mi ENE 10.4 mph - N/A   Scattered Clouds
1:30 PM 55.4 °F - 33.8 °F 44% 30.12 in 6.2 mi ESE 12.7 mph 24.2 mph N/A   Scattered Clouds
2:00 PM 55.4 °F - 32.0 °F 41% 30.12 in 6.2 mi ESE 9.2 mph - N/A   Scattered Clouds
2:30 PM 53.6 °F - 33.8 °F 47% 30.12 in 6.2 mi East 8.1 mph - N/A   Scattered Clouds
3:00 PM 53.6 °F - 37.4 °F 54% 30.12 in 6.2 mi East 10.4 mph - N/A   Scattered Clouds
3:30 PM 53.6 °F - 37.4 °F 54% 30.09 in 6.2 mi ENE 13.8 mph - N/A   Scattered Clouds
4:00 PM 53.6 °F - 37.4 °F 54% 30.09 in 6.2 mi East 12.7 mph - N/A   Partly Cloudy
4:30 PM 53.6 °F - 37.4 °F 54% 30.09 in 6.2 mi East 10.4 mph - N/A   Partly Cloudy
5:00 PM 53.6 °F - 37.4 °F 54% 30.09 in 6.2 mi East 11.5 mph - N/A   Partly Cloudy
5:30 PM 53.6 °F - 32.0 °F 44% 30.09 in 6.2 mi East 10.4 mph - N/A   Partly Cloudy
6:00 PM 51.8 °F - 35.6 °F 54% 30.06 in 6.2 mi East 10.4 mph - N/A   Partly Cloudy
6:30 PM 50.0 °F - 35.6 °F 58% 30.06 in 6.2 mi East 8.1 mph - N/A   Partly Cloudy
7:00 PM 44 °F - 33 °F 55% 30.09 in 12 mi ENE 6.9 mph - -   Scattered Clouds
7:00 PM 44.6 °F 40.2 °F 35.6 °F 71% 30.09 in 6.2 mi ENE 8.1 mph - N/A   Partly Cloudy
7:30 PM 44.6 °F 42.2 °F 37.4 °F 76% 30.09 in 6.2 mi ENE 4.6 mph - N/A   Partly Cloudy
8:00 PM 42.8 °F 40.1 °F 35.6 °F 76% 30.09 in 6.2 mi ENE 4.6 mph - N/A   Partly Cloudy
8:30 PM 41.0 °F 35.2 °F 35.6 °F 81% 30.09 in 6.2 mi ENE 9.2 mph - N/A   Partly Cloudy
9:00 PM 41.0 °F 36.4 °F 33.8 °F 76% 30.09 in 6.2 mi ENE 6.9 mph - N/A   Partly Cloudy
9:30 PM 41.0 °F 36.4 °F 35.6 °F 81% 30.09 in 6.2 mi East 6.9 mph - N/A   Partly Cloudy
10:00 PM 41.0 °F 36.4 °F 35.6 °F 81% 30.09 in 6.2 mi East 6.9 mph - N/A   Scattered Clouds
10:30 PM 42.8 °F 38.6 °F 37.4 °F 81% 30.09 in 6.2 mi East 6.9 mph - N/A   Scattered Clouds
11:00 PM 42.8 °F 38.0 °F 37.4 °F 81% 30.09 in 6.2 mi East 8.1 mph - N/A   Partly Cloudy
11:30 PM 41.0 °F 37.1 °F 37.4 °F 87% 30.06 in 6.2 mi East 5.8 mph - N/A   Partly Cloudy